Location: Unspecified
(51.3762°N, 0.0000°E)
Time: 14:15:41
(UTC+00:00)

AO-92 - Visible Passes

Search period start: 25 August 2019 00:00
Search period end: 04 September 2019 00:00
Orbit: 488 x 502 km, 97.5° (Epoch: 24 August)

Date Brightness Start Highest point End Pass type
(mag) Time Alt. Az. Time Alt. Az. Time Alt. Az.
25 Aug ? 21:07:39 43° ESE 21:08:25 52° ENE 21:11:58 10° N visible
25 Aug ? 22:42:14 15° W 22:42:23 15° W 22:44:32 10° NW visible
26 Aug ? 20:46:24 27° E 20:47:22 31° ENE 20:50:38 10° N visible
26 Aug ? 22:20:59 24° W 22:21:04 24° W 22:24:05 10° NW visible
27 Aug ? 20:25:09 17° E 20:26:23 20° ENE 20:29:07 10° NNE visible
27 Aug ? 21:59:44 40° WSW 21:59:48 40° W 22:03:16 10° NNW visible
28 Aug ? 20:03:54 11° E 20:05:27 13° ENE 20:07:14 10° NNE visible
28 Aug ? 21:38:29 70° WSW 21:38:37 71° WSW 21:42:15 10° NNW visible
29 Aug ? 21:17:14 64° E 21:17:29 67° ENE 21:21:07 10° N visible
29 Aug ? 22:51:49 12° W 22:51:49 12° W 22:53:05 10° WNW visible
30 Aug ? 20:55:59 37° E 20:56:24 39° ENE 20:59:49 10° N visible
30 Aug ? 22:30:34 19° W 22:30:34 19° W 22:32:57 10° NW visible
31 Aug ? 20:34:44 23° E 20:35:23 24° ENE 20:38:23 10° N visible
31 Aug ? 22:09:19 31° W 22:09:19 31° W 22:12:15 10° NNW visible
01 Sep ? 20:13:29 15° E 20:14:26 16° ENE 20:16:41 10° NNE visible
01 Sep ? 21:48:04 52° WNW 21:48:04 52° WNW 21:51:19 10° NNW visible
02 Sep ? 19:52:56 10° ENE 19:53:32 10° NE 19:54:08 10° NE visible
02 Sep ? 21:26:49 74° N 21:26:49 74° N 21:30:12 10° NNW visible
03 Sep ? 21:05:34 48° ENE 21:05:34 48° ENE 21:08:59 10° N visible
03 Sep ? 22:40:09 15° WNW 22:40:09 15° WNW 22:41:43 10° NW visible
